Regional Weather Roundup
Issued by NWS

Home | Current Version | Previous Version | Text Only | Print | Product List | Glossary Off
Versions: 1 2 3 4 5 6 7 8 9 10 11 12 13 14 15 16 17 18 19 20 21 22 23 24 25 26 27 28 29 30 31 32 33 34 35 36 37 38 39 40 41 42 43 44 45 46 47 48 49 50

000
ASUS43 KOAX 301902
RWRNE

WEATHER ROUNDUP FOR NEBRASKA
NATIONAL WEATHER SERVICE OMAHA NE
200 PM CDT SAT AUG 30 2014

NOTES: SATELLITE DATA IS BEING USED TO AUGMENT CLOUD COVER ABOVE
       12000 FEET.
       "FAIR" INDICATES FEW OR NO CLOUDS BELOW 12,000 FEET WITH NO
       SIGNIFICANT WEATHER AND/OR OBSTRUCTIONS TO VISIBILITY.

  * THESE STATIONS DO NOT REPORT WEATHER SUCH AS RAIN...SNOW OR FOG.

NEZ001>004-019>022-054>056-302000-
NEBRASKA PANHANDLE

CITY           SKY/WX    TMP DP  RH WIND       PRES   REMARKS
SCOTTSBLUFF    SUNNY     87  54  32 E8        29.87F
ALLIANCE       SUNNY     84  55  36 S16G25    29.90F
CHADRON        SUNNY     88  52  29 SW10G21   29.81F
KIMBALL        SUNNY     85  40  20 SW12      29.95F
SIDNEY         SUNNY     83  51  33 S14G21    29.96F
$$

NEZ057>060-069>072-079>082-302000-
SOUTHWEST NEBRASKA

CITY           SKY/WX    TMP DP  RH WIND       PRES   REMARKS
NORTH PLATTE   SUNNY     82  62  50 SE9       29.92F
IMPERIAL       SUNNY     83  57  41 S17G23    29.93F
LEXINGTON      SUNNY     80  65  61 SE13      29.94F
MCCOOK         SUNNY     84  60  44 SE9       29.93F
OGALLALA       SUNNY     80  59  48 S12G20    29.92F
$$

NEZ005>010-023>029-035>040-094-302000-
NORTH CENTRAL NEBRASKA

CITY           SKY/WX    TMP DP  RH WIND       PRES   REMARKS
VALENTINE      SUNNY     80  59  48 S17G23    29.89F
AINSWORTH      SUNNY     76  59  57 SE14      29.91F
BROKEN BOW     SUNNY     79  63  57 S13       29.93F
O`NEILL        SUNNY     76  60  58 SE6       29.93F
ORD            SUNNY     77  61  57 SE10      29.93F
THEDFORD       SUNNY     81  62  51 S18       29.92F
$$

NEZ041-046>049-061>064-073>077-083>087-302000-
SOUTH CENTRAL NEBRASKA

CITY           SKY/WX    TMP DP  RH WIND       PRES   REMARKS
GRAND ISLAND   SUNNY     79  63  57 SE7       29.95F
AURORA         SUNNY     77  64  62 SE3       29.95F
HASTINGS       SUNNY     79  62  56 SE8       29.95F
HEBRON         SUNNY     82  61  48 SE3       29.94F
HOLDREGE       SUNNY     80  62  55 S9        29.94F
KEARNEY *      SUNNY     79  64  61 SE10      29.95F
$$

NEZ011>018-030>034-042>045-302000-
NORTHEAST NEBRASKA

CITY           SKY/WX    TMP DP  RH WIND       PRES   REMARKS
NORFOLK        SUNNY     76  60  57 CALM      29.94F
ALBION         SUNNY     75  61  60 S3        29.95F
BLAIR          SUNNY     77  64  63 NW6       29.93F
FREMONT        SUNNY     80  61  52 W3        29.94S
TEKAMAH        SUNNY     78  63  59 N5        29.92F
WAYNE          MOSUNNY   73  62  69 CALM      29.94F
$$

NEZ050>053-065>068-078-088>093-302000-
SOUTHEAST NEBRASKA

CITY           SKY/WX    TMP DP  RH WIND       PRES   REMARKS
LINCOLN        SUNNY     83  62  49 N7        29.93F
OMAHA EPPLEY   MOSUNNY   76  65  68 SE3       29.93F
BEATRICE       SUNNY     82  66  60 W5        29.94F
FALLS CITY     SUNNY     86  67  52 CALM      29.91F
NEBRASKA CITY  SUNNY     81  62  52 NW7       29.94S
PLATTSMOUTH    SUNNY     76  67  72 NW3       29.94S
$$

NEZ044-045-051>053-067-302000-
OMAHA AREA

CITY           SKY/WX    TMP DP  RH WIND       PRES   REMARKS
OMAHA EPPLEY   MOSUNNY   76  65  68 SE3       29.93F
BLAIR          SUNNY     77  64  63 NW6       29.93F
FREMONT        SUNNY     80  61  52 W3        29.94S
MILLARD        SUNNY     78  65  65 CALM      29.92F
OFFUTT AFB     SUNNY     76  70  80 S3        29.93F
PLATTSMOUTH    SUNNY     76  67  72 NW3       29.94S
WAHOO          FAIR      80  58  47 NW6       29.93F
$$


USA.gov is the U.S. government's official web portal to all federal, state and local government web resources and services.